Flag for U.S.A. Weather past 2 weeks in Lafayette, Louisiana, U.S.A.

Now
77 °F

Partly sunny.


Feels Like: 79 °F
Forecast: 62 / 80 °F
Wind: 13 mph from West

Location: Lafayette Regional Airport

Current Time: Mar 31, 2015 at 2:02:41 PM

Latest Report: Mar 31, 2015 at 12:53 PM


Visibility: 10 mi

Pressure: 30.11 "Hg

Humidity: 60%

Dew point: 62 °F

Location of LafayetteLocation

Historic Weather in Lafayette — Graph

°F

Lafayette temperature yesterday

Maximum temperature yesterday: 81 °F (at 1:53 PM)
Minimum temperature yesterday: 61 °F (at 4:53 AM)
Average temperature yesterday: 70 °F

Past Weeks' High & Low Weather Summary

 TemperatureHumidityPressure
High83 °F (Mar 17, 3:53 PM)100% (Mar 20, 2:03 AM)30.26 "Hg (Mar 20, 2:03 AM)
Low47 °F (Mar 27, 6:53 AM)29% (Mar 27, 5:53 PM)29.83 "Hg (Mar 26, 3:53 PM)
Average68 °F76%30.06 "Hg
* Reported Mar 16 12:53 PM — Mar 31 12:53 PM, Lafayette, Weather by CustomWeather, © 2015

Note: Actual official high and low records may vary slightly from our data, if they occured in-between our weather recording intervals... More about our weather records

Advertising

Lafayette weather history for previous 24 hours

 ConditionsComfort  
Time TempWeatherWind HumidityBarometerVisibility
12:53 PM
Tue, Mar 31
77 °FPartly sunny.13 mph60%30.11 "Hg10 mi
11:53 AM76 °FScattered clouds.12 mph62%30.13 "Hg10 mi
10:53 AM76 °FBroken clouds.13 mph69%30.14 "Hg10 mi
9:53 AM72 °FPartly sunny.6 mph81%30.13 "Hg10 mi
8:53 AM67 °FSunny.No wind93%30.12 "Hg9 mi
7:53 AM62 °FFog.No wind96%30.11 "Hg6 mi
6:53 AM61 °FFog.No wind97%30.09 "Hg6 mi
5:59 AM61 °FFog.No wind97%30.09 "Hg2 mi
4:56 AM63 °FFog.3 mph97%30.08 "Hg3 mi
3:53 AM62 °FClear.5 mph96%30.09 "Hg7 mi
2:53 AM62 °FFog.5 mph96%30.11 "Hg6 mi
1:53 AM63 °FClear.5 mph93%30.12 "Hg10 mi
12:53 AM62 °FClear.6 mph96%30.13 "Hg10 mi
11:53 PM
Mon, Mar 30
64 °FClear.5 mph90%30.15 "Hg10 mi
10:53 PM65 °FClear.5 mph87%30.16 "Hg10 mi
9:53 PM65 °FClear.6 mph85%30.16 "Hg10 mi
8:53 PM68 °FClear.7 mph76%30.14 "Hg10 mi
7:53 PM71 °FSunny.8 mph68%30.14 "Hg10 mi
6:53 PM75 °FSunny.12 mph60%30.12 "Hg10 mi
5:53 PM78 °FPassing clouds.13 mph52%30.13 "Hg10 mi
4:53 PM80 °FScattered clouds.15 mph49%30.13 "Hg10 mi
3:53 PM80 °FScattered clouds.12 mph45%30.14 "Hg10 mi
2:53 PM81 °FPassing clouds.14 mph49%30.16 "Hg10 mi
Weather by CustomWeather, © 2015

See weather overviewHow to use our weather pages